Theta_e
333 331 332 332 332 329 330 331 333 335 332 330 329 329 329 329 328 326 325 338 341 342 341 338 338 339 339 343 344 343 343 343 343 344 343 344 345 345 345 347 349 350 351
331 332 331 331 330 330 331 331 333 332 328 327 326 327 328 327 327 326 325 324 330 332 335 339 340 339 338 341 340 340 340 340 343 343 343 343 344 344 342 343 346 347 349
330 330 331 331 331 332 333 333 329 326 324 323 323 326 326 326 325 324 324 323 322 327 329 329 332 333 336 338 338 339 339 339 340 341 342 343 343 344 342 339 341 344 348
330 332 331 331 332 333 332 325 322 318 316 314 312 310 312 321 322 320 322 321 321 321 324 327 329 330 329 331 334 335 337 337 338 338 341 342 342 342 342 340 339 341 344
334 331 332 331 332 327 320 319 318 314 310 310 311 309 310 309 315 317 316 320 318 319 321 324 328 327 328 330 330 332 333 335 337 337 339 341 342 343 342 341 340 338 340
336 331 330 324 323 318 317 316 312 312 310 309 312 309 308 308 307 309 312 316 316 318 318 318 318 322 326 328 329 329 332 333 336 337 338 339 340 341 342 343 342 339 339
333 328 321 318 316 312 314 314 312 310 308 309 306 305 305 306 306 306 308 311 310 313 315 316 315 317 319 326 327 328 330 333 335 336 336 336 338 339 340 342 341 341 341
326 323 317 315 313 313 313 312 310 308 307 309 304 301 297 299 302 305 307 310 312 313 315 316 315 315 318 318 319 327 331 333 333 335 335 335 336 339 339 340 340 340 340
322 318 316 315 313 311 312 311 310 309 305 307 305 301 296 294 300 302 305 308 309 309 311 312 314 315 317 316 320 322 326 334 332 333 336 336 336 336 337 338 339 338 339
320 317 316 315 314 311 311 311 313 310 307 304 304 307 303 302 297 296 302 305 308 310 311 313 313 313 315 315 319 323 327 333 333 333 335 335 336 334 336 337 338 338 337
318 318 316 314 312 312 312 312 311 310 309 305 304 303 302 301 300 299 297 303 307 308 312 314 314 313 313 313 312 320 328 334 334 333 334 334 333 335 334 335 336 337 335
317 316 317 313 312 314 312 313 312 312 310 308 306 305 302 300 299 298 298 299 300 305 311 312 314 312 313 314 324 330 332 331 331 330 331 332 334 335 335 334 334 334 334
314 314 315 312 310 312 313 313 312 312 311 308 307 305 305 303 303 302 300 299 301 304 307 312 316 316 319 318 319 328 330 328 326 326 326 329 332 334 333 334 335 335 335
314 314 314 313 312 313 313 313 312 312 312 310 308 308 307 307 305 304 303 301 300 300 304 309 310 314 316 318 323 329 322 327 324 322 323 327 329 331 330 331 333 332 333
314 316 315 313 312 313 313 313 312 311 311 310 310 310 308 309 308 308 306 305 302 297 299 305 307 312 314 316 319 320 320 325 328 324 323 327 327 328 328 328 329 329 329
314 314 316 313 312 312 313 312 311 311 309 309 311 310 313 310 310 309 307 306 305 303 299 304 306 309 316 317 320 319 321 327 326 323 323 321 322 324 325 325 325 326 326
314 315 316 313 312 312 312 312 312 312 311 311 310 311 311 313 310 309 309 308 306 303 301 304 305 309 311 312 315 316 321 319 321 323 323 322 321 321 322 322 323 323 324
316 316 316 315 313 312 311 312 311 312 311 309 310 310 310 314 312 310 309 309 308 308 304 305 304 307 310 312 313 314 319 323 321 325 324 322 320 320 320 321 321 320 321
316 316 317 315 314 314 312 312 311 312 313 311 309 309 309 311 310 310 310 312 311 313 310 308 308 309 310 310 310 313 315 316 322 327 324 322 321 319 319 319 319 318 317
315 315 317 317 316 315 314 312 312 310 311 310 309 310 310 310 310 311 312 311 312 310 309 308 308 308 308 310 310 311 310 314 317 322 324 320 319 319 318 318 319 318 315
317 316 316 317 317 317 318 314 312 310 309 309 309 310 310 313 320 318 313 310 309 308 308 308 307 307 307 308 308 311 311 314 315 316 315 316 314 314 314 318 319 320 316
318 318 318 318 317 319 318 315 311 309 310 309 308 309 310 315 316 317 317 317 313 308 306 306 307 306 307 308 309 309 309 309 309 318 315 313 316 313 316 314 317 315 313
316 315 317 317 317 317 315 311 313 309 309 309 309 309 310 315 316 316 316 316 315 314 314 309 307 307 307 310 311 308 308 308 308 313 312 309 312 314 312 312 312 311 311
318 318 318 318 317 314 304 306 310 310 308 310 310 310 309 311 313 316 315 314 315 315 313 314 311 312 311 312 313 312 310 310 311 313 313 306 308 308 311 308 311 309 309
314 315 315 307 304 297 298 298 305 309 308 310 312 311 312 314 312 311 313 311 310 311 316 315 313 313 308 306 306 307 306 306 305 307 311 307 307 306 310 310 311 310 306
311 312 310 306 303 298 296 296 298 304 303 304 306 308 310 310 307 306 312 309 306 308 312 311 312 312 308 309 304 307 308 306 305 304 309 306 304 308 305 309 309 306 306
Wind_Speed
3 3 3 2 2 1 1 3 2 4 4 5 5 4 5 5 6 4 4 12 10 12 13 13 14 14 12 10 11 12 14 12 10 9 8 7 7 6 7 7 7 9 10
2 2 2 2 4 3 4 4 4 3 2 3 4 6 6 6 5 5 4 4 11 17 23 17 16 15 15 13 11 9 8 9 9 9 9 8 8 7 7 7 7 7 8
1 2 2 3 3 3 5 4 4 4 5 6 6 6 6 7 5 4 4 2 4 8 11 17 20 18 17 15 13 14 11 11 10 11 11 10 9 8 9 9 9 9 8
2 1 2 2 4 4 3 4 4 5 4 4 4 4 4 6 6 7 4 4 3 4 4 6 11 18 15 15 14 12 15 15 14 14 11 11 11 11 10 10 10 9 9
4 1 1 3 4 4 4 4 4 3 4 5 5 5 7 5 4 5 7 6 3 3 2 9 14 12 17 21 15 14 14 17 15 15 16 13 13 12 12 11 11 10 10
2 1 5 6 5 4 5 4 6 5 2 4 5 6 5 4 4 4 5 5 4 4 5 6 5 9 14 26 19 14 18 22 19 17 17 16 14 14 13 12 12 11 11
4 7 5 5 5 6 4 4 3 5 5 4 3 5 4 2 3 5 5 5 5 6 5 5 4 5 8 23 22 17 15 20 22 19 17 17 17 15 14 13 13 12 11
7 7 6 5 6 5 5 4 5 3 3 3 2 2 4 5 2 3 5 5 6 4 4 5 6 8 8 6 6 21 17 18 19 19 18 16 16 16 15 14 13 13 12
7 7 7 5 3 3 2 2 3 4 1 4 4 1 4 3 6 4 5 5 6 4 4 4 6 6 6 4 8 12 19 20 17 15 18 18 18 19 18 15 14 14 13
7 7 6 5 4 3 2 1 2 0 1 2 3 2 1 4 1 7 4 5 5 6 6 4 6 6 9 4 13 20 20 20 16 15 14 16 22 21 18 16 14 13 13
7 6 6 5 2 2 1 1 1 2 2 2 1 2 2 2 1 2 5 10 7 4 5 5 8 8 8 8 9 13 19 9 13 15 15 14 17 20 19 16 15 14 14
5 5 6 4 2 2 1 2 3 3 4 3 1 1 1 2 3 1 2 5 5 6 7 4 4 5 5 5 7 9 4 2 5 6 9 13 16 18 19 19 18 16 15
2 3 4 3 2 2 3 3 4 4 3 3 2 3 2 3 2 2 1 4 3 4 4 4 2 1 2 2 4 9 7 5 7 8 9 13 15 18 20 17 15 15 13
3 5 4 4 3 3 3 4 3 3 4 4 5 4 2 4 2 2 2 1 6 3 3 7 4 2 3 3 8 10 4 8 7 8 11 14 13 15 15 14 12 12 9
2 2 2 3 4 3 4 4 3 5 3 3 5 5 3 3 3 2 2 2 3 4 5 6 3 5 3 3 6 5 5 9 11 7 5 5 11 12 12 11 10 9 9
3 3 4 4 5 5 6 5 4 5 4 4 4 6 5 3 4 4 3 3 2 4 4 3 4 4 4 3 6 4 5 8 7 8 5 1 4 7 8 7 7 7 8
5 5 6 6 6 6 6 5 6 7 6 6 4 5 7 5 4 4 3 3 4 2 4 5 3 4 3 4 5 5 5 5 5 7 9 8 8 8 8 7 7 8 9
5 6 6 6 7 7 7 6 7 6 7 6 6 5 6 4 6 5 4 6 3 4 3 7 4 3 4 3 4 6 6 4 4 7 12 11 9 9 9 10 10 10 10
6 6 6 6 7 7 7 7 7 7 7 6 6 5 6 6 5 5 5 4 4 4 4 3 5 3 4 2 4 4 5 5 4 9 10 15 12 12 11 10 10 10 11
7 7 7 7 7 7 7 7 7 6 6 6 6 6 6 6 7 7 5 6 5 3 3 4 4 4 3 4 2 3 5 2 4 2 5 6 8 10 10 10 10 11 11
7 7 7 7 7 6 6 7 6 7 7 7 7 6 7 8 14 9 5 6 5 4 3 3 4 3 3 3 3 3 3 4 3 2 2 3 3 3 4 7 7 10 10
7 6 7 7 7 5 9 9 8 6 7 6 6 7 6 10 11 13 10 13 9 5 5 3 3 4 5 4 2 2 2 2 3 3 4 3 5 4 3 3 6 8 9
4 5 6 6 7 7 11 11 12 6 6 6 6 6 7 7 8 6 7 9 9 12 12 6 7 7 6 5 3 3 3 3 4 4 3 2 1 3 2 4 4 4 2
6 6 6 7 7 11 22 16 11 7 6 7 7 8 7 10 8 7 6 6 6 6 6 6 10 11 9 6 5 4 3 4 3 3 3 3 0 2 3 2 4 2 3
5 5 8 11 12 10 20 24 17 5 5 7 7 7 7 9 11 12 6 6 7 7 6 9 10 15 9 10 6 2 3 1 2 3 1 4 2 2 2 1 1 3 6
2 2 4 6 11 7 18 20 18 9 9 7 8 7 9 11 13 9 7 5 6 6 5 6 6 5 8 7 10 7 4 4 3 1 3 4 3 3 1 2 3 3 3
Wind_Direction
73 31 353 47 56 351 351 327 328 306 336 308 351 349 339 326 318 332 336 353 295 260 257 238 228 220 207 203 209 221 222 212 209 209 209 204 204 210 216 218 216 222 218
80 48 360 23 13 1 315 291 284 319 287 305 323 347 325 315 355 17 18 13 30 12 12 310 269 248 232 213 205 210 213 206 193 196 207 215 207 200 211 223 229 229 232
48 33 4 10 353 298 288 320 8 28 23 11 0 331 326 316 335 352 338 335 36 35 18 4 4 357 333 286 227 231 222 228 229 217 209 204 207 210 213 222 230 235 233
175 351 6 351 287 295 359 43 35 32 22 4 342 340 351 341 323 340 342 337 16 14 346 309 315 323 355 346 338 305 252 234 232 237 228 224 214 211 214 220 227 234 237
145 193 280 282 331 36 34 35 42 58 17 358 349 354 339 338 6 4 4 358 279 237 244 276 265 278 313 312 331 325 306 254 246 242 237 227 230 222 216 217 222 231 237
163 184 33 50 52 41 24 37 36 15 20 359 351 333 309 323 3 5 314 290 292 304 240 238 236 241 236 271 283 305 307 296 239 234 240 239 231 230 227 221 221 226 235
80 90 90 58 43 46 43 41 25 33 3 348 0 313 289 285 38 317 301 299 293 283 287 264 248 265 261 249 261 278 287 272 251 234 228 231 230 228 227 228 227 227 231
107 87 78 64 45 31 28 31 54 20 348 330 301 292 330 330 311 303 318 304 291 284 293 301 280 264 253 260 272 280 299 289 255 234 230 230 234 227 223 223 228 227 231
109 101 96 90 80 73 41 42 43 36 318 315 337 126 353 322 330 318 324 317 325 309 281 296 286 291 300 274 269 282 294 269 253 246 244 233 232 232 222 220 223 224 229
122 118 119 115 104 66 45 28 33 205 54 299 333 349 222 189 307 324 309 308 329 313 287 312 285 276 278 299 292 274 273 257 235 245 251 237 235 231 228 219 219 222 229
128 124 120 106 108 102 341 344 259 305 264 202 191 300 318 308 217 198 298 327 331 304 262 248 254 268 263 277 278 284 260 238 215 220 236 238 243 236 224 222 218 223 230
108 114 117 132 122 126 240 271 264 271 272 245 231 293 241 226 270 278 271 288 272 305 304 316 298 262 258 257 284 346 328 250 207 230 233 229 227 230 222 215 216 228 228
99 160 155 169 159 228 259 263 275 277 269 231 245 253 262 268 218 236 217 289 293 297 313 321 341 315 272 284 336 354 334 230 233 237 259 248 223 212 213 209 215 223 217
177 156 169 167 194 236 256 275 275 278 276 247 256 267 260 279 281 233 220 296 323 312 319 323 300 307 320 332 335 325 325 295 270 275 284 250 216 202 200 203 201 211 214
137 130 182 204 231 240 251 259 253 269 273 270 245 252 237 254 268 277 262 219 204 308 309 307 312 310 280 295 286 288 312 300 272 250 285 209 196 183 185 188 179 190 201
191 240 249 226 229 240 252 254 256 259 276 278 255 254 250 259 262 265 273 267 225 193 268 234 272 281 292 301 282 291 286 309 287 237 235 198 123 136 152 170 176 191 205
218 234 235 227 228 238 247 243 242 253 261 265 274 262 264 254 259 262 276 279 279 200 244 292 261 289 288 299 313 309 290 291 272 244 228 210 183 178 184 189 196 211 217
237 235 245 241 233 235 242 233 241 256 252 260 271 269 278 261 255 249 248 263 255 269 215 282 272 284 276 292 287 304 282 270 259 249 216 210 206 204 204 203 207 212 216
250 264 262 248 243 244 240 240 240 249 250 244 251 259 272 275 272 259 245 252 263 258 253 252 285 268 272 274 315 289 269 275 263 265 222 206 202 211 209 211 211 211 212
239 252 259 260 254 252 248 248 246 245 227 242 254 260 266 264 254 255 242 242 250 276 283 280 284 283 258 288 239 278 308 289 280 261 246 207 189 213 211 213 218 221 219
230 236 253 264 264 257 254 251 247 231 244 260 267 268 266 264 274 252 220 237 236 240 254 272 278 284 284 308 291 281 278 281 281 220 223 234 192 202 219 212 224 224 215
252 247 256 258 267 268 261 241 218 236 247 250 269 277 268 281 276 273 251 241 221 218 237 221 250 257 271 251 256 263 279 311 290 240 194 228 162 206 186 172 187 213 209
311 293 286 280 277 272 271 269 259 245 241 245 257 267 282 278 274 272 278 274 256 235 224 217 240 247 252 232 248 263 267 245 237 266 111 166 108 128 124 126 107 60 107
350 336 323 313 300 22 3 336 282 246 237 243 249 254 252 268 252 246 264 276 280 266 242 225 224 246 234 239 209 210 231 263 279 278 136 177 152 133 161 172 109 22 277
356 15 37 38 56 34 18 20 358 305 269 262 261 260 252 248 250 241 228 251 273 279 274 272 256 236 226 230 231 198 260 238 276 266 203 130 179 147 172 196 217 227 258
325 20 78 81 65 52 26 22 20 358 353 343 326 314 316 336 309 230 204 208 261 269 289 313 319 290 245 236 210 213 191 214 207 298 237 129 152 127 268 232 210 225 198